Location: Brahman Valley
(40.6513°N, 111.8855°W)
Time: 20:32:05
(UTC+00:00)

Vanguard 2 - Pass Details

Date: 22 May 2021
Orbit: 552 x 2937 km, 32.9° (Epoch: 14 June)

Event Time Altitude Azimuth Distance (km) Brightness Sun altitude
Rises 16:44:29 0° 271° (W) 5,127 11.4 50.6°
Reaches altitude 10° 16:48:21 10° 259° (W) 4,486 11.2 51.3°
Maximum altitude 16:58:03 25° 211° (SSW) 4,082 11.4 53.0°
Drops below altitude 10° 17:10:14 10° 165° (SSE) 5,689 12.4 55.2°
Sets 17:16:09 0° 154° (SSE) 6,778 12.7 56.2°
